User: anonymous   Login
Location: Caltech
(34.1382°N, 118.1253°W)
Time: 10:11:54
(UTC-08:00)
Language:

Cosmos 1975 - Orbit

View from above orbital plane
View from above orbital plane
View from above satellite
View from above satellite

Ground track
Ground track

The orbit data is extracted from the following two-line orbital elements,

1 19573U 88093A   15026.76029311  .00001817  00000-0  13696-3 0  4200
2 19573 082.5224 108.4867 0015121 031.4986 328.7141 15.01815185428730
Epoch (UTC): 26 January 2015 18:14:49
Eccentricity: 0.0015121
inclination: 82.5224°
perigee height: 551 km
apogee height: 572 km
right ascension of ascending node: 108.4867°
argument of perigee: 31.4986°
revolutions per day: 15.01815185
mean anomaly at epoch: 328.7141°
orbit number at epoch: 42873

The dashed part of the orbit path shows where the satellite is in the earth's shadow,  

DLR